Location: Unspecified
(0.0000°N, 0.0000°E)
Time: 05:00:58
(UTC+00:00)

A-11 Canister half - Pass Details

Date: 23 April 2026
Orbit: 1523 x 1685 km, 47.3° (Epoch: 13 May)

Event Time Altitude Azimuth Distance (km) Brightness Sun altitude
Rises 08:27:57 0° 310° (NW) 4,871 11.4 36.4°
Reaches altitude 10° 08:31:12 10° 306° (NW) 3,866 10.9 37.1°
Maximum altitude 08:40:45 56° 231° (SW) 1,848 9.6 39.4°
Drops below altitude 10° 08:50:02 10° 154° (SSE) 3,749 11.2 41.6°
Sets 08:53:09 0° 150° (SSE) 4,715 11.7 42.4°
